Location: Ripley
(48.3812°N, 115.4473°W)
Time: 20:24:58
(UTC+00:00)

RS-15 - Pass Details

Date: 04 July 2022
Orbit: 1881 x 2163 km, 64.8° (Epoch: 19 August)

Event Time Altitude Azimuth Distance (km) Brightness Sun altitude
Rises 06:26:30 0° 320° (NW) 5,697 11.8 -16.5°
Reaches altitude 10° 06:29:58 10° 320° (NW) 4,693 11.1 -16.7°
Maximum altitude 06:42:25 88° 234° (SW) 2,145 8.2 -17.3°
Enters shadow 06:51:56 20° 146° (SE) 3,833 9.0 -17.7°
